A/2019 T2

Japanese version
Home page
Updated on November 9, 2019

---------------------------------------------------------------------

* Profile

Discovery Date October 9, 2019
Magnitude 20.6 mag
Discoverer Mt. Lemmon Survey

* Orbital Elements

Epoch 2021 Apr. 16.0 TT = JDT 2459320.5
T 2021 Apr. 22.34330 TT                                 Williams
q   2.6457060            (2000.0)            P               Q
z  +0.0006256      Peri.  239.39980     +0.33373409     -0.86103234
 +/-0.0000556      Node   155.64539     -0.13752113     +0.35823752
e   0.9983448      Incl.  111.48605     -0.93258217     -0.36095594
H   12.5
From 41 observations 2019 Aug. 26-Oct. 29, mean residual 0".3.

* Magnitudes Graph

        H = 12.5  G = 0.15

---------------------------------------------------------------------

The orbital elements are published on M.P.E.C. 2019-V116.
The magnitudes graphs are made with Comet for Windows.

---------------------------------------------------------------------

Copyright(C) Seiichi Yoshida (comet@aerith.net). All rights reserved.